Location: Gro�sch�nbrunn
(49.5760°N, 11.8868°E)
Time: 23:15:25
(UTC+00:00)

Exosat Rocket - Pass Details

Date: 18 September 2020
Orbit: 760 x 2514 km, 72.3° (Epoch: 30 October)

Event Time Altitude Azimuth Distance (km) Brightness Sun altitude
Rises 18:59:09 0° 182° (S) 3,688 6.8 -16.7°
Reaches altitude 10° 19:02:01 10° 175° (S) 2,572 5.9 -17.1°
Maximum altitude 19:07:10 39° 108° (ESE) 1,185 4.0 -17.9°
Drops below altitude 10° 19:11:47 10° 40° (NE) 2,303 5.8 -18.5°
Sets 19:14:12 0° 32° (NNE) 3,254 6.7 -18.9°
